Weather History for LGPZ - September, 2012

Change the Weather History Date:

Saturday, September 29, 2012

  Actual Average Record
Temperature  
Mean Temperature 81 °F -  
Max Temperature 94 °F 71 °F 94 °F (2012)
Min Temperature 68 °F 58 °F 57 °F (2008)
Cooling Degree Days 16    
Growing Degree Days 31 (Base 50)    
Moisture  
Dew Point 65 °F    
Average Humidity 65    
Maximum Humidity 94    
Minimum Humidity 22    
Precipitation  
Precipitation 0.00 in - - ()
Sea Level Pressure  
Sea Level Pressure 30.04 in    
Wind  
Wind Speed 6 mph ()    
Max Wind Speed 20 mph    
Max Gust Speed -    
Visibility 6.1 miles    
Events      
Averages and records for this station are not official NWS values.
T = Trace of Precipitation, MM = Missing Value Source: Averaged Metar Reports

Daily Weather History Graph

Daily Weather History Graph

Search for Another Location

Airport or City:

Trip Planner

Search our weather history database for the weather conditions in past years. The results will help you decide how hot, cold, wet, or windy it might be!

Date:

Astronomy

Sep. 29, 2012 Rise Set
Actual Time 7:31 AM EEST 7:22 PM EEST
Civil Twilight 7:04 AM EEST 7:49 PM EEST
Nautical Twilight 6:33 AM EEST 8:19 PM EEST
Astronomical Twilight 6:02 AM EEST 8:51 PM EEST
Moon 6:46 PM EEST (9/29) 6:43 AM EEST (9/29)
Length of Visible Light 12h 44m
Length of Day
11h 51m
Waxing Gibbous, 99% of the Moon is Illuminated
Sep 29
Waxing Gibbous
Sep 30
Full
Oct 8
Last Quarter
Oct 15
New
Oct 22
First Quarter

Hourly Weather History & Observations

Time (EEST) Temp. Heat Index Dew Point Humidity Pressure Visibility Wind Dir Wind Speed Gust Speed Precip Events Conditions
12:50 AM 69.8 °F - 68.0 °F 94% 30.06 in 6.2 mi Calm Calm - N/A   Partly Cloudy
1:50 AM 69.8 °F - 66.2 °F 88% 30.04 in 6.2 mi ENE 6.9 mph - N/A   Partly Cloudy
2:50 AM 71.6 °F - 66.2 °F 83% 30.04 in 6.2 mi NNE 8.1 mph - N/A   Partly Cloudy
3:00 AM 71 °F - 67 °F 83% 30.06 in 6 mi NNE 8.1 mph - -   Scattered Clouds
3:50 AM 69.8 °F - 66.2 °F 88% 30.04 in 6.2 mi East 5.8 mph - N/A   Partly Cloudy
5:50 AM 71.6 °F - 66.2 °F 83% 30.04 in - East 6.9 mph - N/A   Clear
6:20 AM 69.8 °F - 64.4 °F 83% 30.04 in - East 6.9 mph - N/A   Clear
6:50 AM 69.8 °F - 62.6 °F 78% 30.04 in 6.2 mi NE 10.4 mph - N/A   Partly Cloudy
7:20 AM 69.8 °F - 62.6 °F 78% 30.04 in 6.2 mi NNE 19.6 mph - N/A   Partly Cloudy
7:50 AM 71.6 °F - 66.2 °F 83% 30.04 in 6.2 mi East 6.9 mph - N/A   Partly Cloudy
8:20 AM 73.4 °F - 60.8 °F 65% 30.04 in 6.2 mi East 10.4 mph - N/A   Partly Cloudy
8:50 AM 75.2 °F - 60.8 °F 61% 30.04 in 6.2 mi ENE 8.1 mph - N/A   Partly Cloudy
9:00 AM 74 °F - 61 °F 54% 30.06 in 6 mi ENE 8.1 mph - -   Scattered Clouds
9:20 AM 75.2 °F - 66.2 °F 73% 30.06 in 6.2 mi NE 10.4 mph - N/A   Partly Cloudy
9:50 AM 77.0 °F - 60.8 °F 57% 30.06 in - ENE 8.1 mph - N/A   Clear
10:20 AM 78.8 °F - 60.8 °F 54% 30.06 in - ENE 8.1 mph - N/A   Clear
10:50 AM 80.6 °F 82.3 °F 64.4 °F 58% 30.06 in - NE 6.9 mph - N/A   Clear
11:20 AM 80.6 °F 81.8 °F 62.6 °F 54% 30.06 in - ENE 5.8 mph - N/A   Clear
11:50 AM 86.0 °F - 51.8 °F 31% 30.06 in - NE 5.8 mph - N/A   Clear
12:20 PM 87.8 °F 85.7 °F 53.6 °F 31% 30.06 in - Variable 3.5 mph - N/A   Clear
12:50 PM 89.6 °F 87.3 °F 53.6 °F 29% 30.06 in - East 4.6 mph - N/A   Clear
1:20 PM 91.4 °F 89.4 °F 55.4 °F 29% 30.04 in - ENE 4.6 mph - N/A   Clear
1:50 PM 95.0 °F - 50.0 °F 22% 30.04 in - Variable 3.5 mph - N/A   Clear
2:20 PM 91.4 °F 89.9 °F 57.2 °F 31% 30.01 in - Variable 3.5 mph - N/A   Clear
2:50 PM 84.2 °F 89.6 °F 71.6 °F 66% 30.04 in - West 13.8 mph - N/A   Clear
3:00 PM 85 °F - 72 °F 56% 30.04 in 6 mi West 13.8 mph - -  
3:20 PM 84.2 °F 89.6 °F 71.6 °F 66% 30.01 in - WNW 12.7 mph - N/A   Clear
3:50 PM 86.0 °F 90.4 °F 69.8 °F 58% 30.01 in - WNW 8.1 mph - N/A   Clear
4:20 PM 84.2 °F 88.4 °F 69.8 °F 62% 30.01 in - WNW 9.2 mph - N/A   Clear
4:50 PM 82.4 °F 86.3 °F 69.8 °F 66% 30.01 in - WNW 8.1 mph - N/A   Clear
5:20 PM 82.4 °F 86.3 °F 69.8 °F 66% 30.01 in - West 6.9 mph - N/A   Clear
5:50 PM 80.6 °F 83.9 °F 69.8 °F 70% 30.01 in - West 6.9 mph - N/A   Clear
6:20 PM 80.6 °F 84.6 °F 71.6 °F 74% 30.01 in - West 6.9 mph - N/A   Clear
6:50 PM 78.8 °F - 71.6 °F 78% 30.01 in - WSW 4.6 mph - N/A   Clear
7:20 PM 78.8 °F - 69.8 °F 74% 30.01 in - SW 4.6 mph - N/A   Clear
7:50 PM 77.0 °F - 69.8 °F 78% 30.01 in - Variable 3.5 mph - N/A   Clear
8:20 PM 77.0 °F - 69.8 °F 78% 30.01 in - Variable 3.5 mph - N/A   Clear
8:50 PM 77.0 °F - 66.2 °F 69% 30.01 in - Calm Calm - N/A   Clear
9:00 PM 76 °F - 66 °F 65% 30.03 in 6 mi Calm Calm - -   Scattered Clouds
9:50 PM 73.4 °F - 64.4 °F 73% 30.04 in - Calm Calm - N/A   Clear
10:50 PM 69.8 °F - 62.6 °F 78% 30.04 in - Calm Calm - N/A   Clear
11:50 PM 71.6 °F - 64.4 °F 78% 30.04 in - ENE 4.6 mph - N/A   Clear